[[{"header":{"parameterUnit":"m.s-1","parameterCategory":2,"la1":30.2991,"la2":30.254,"lo1":-89.0895,"lo2":-89.0444,"dy":0.0017,"dx":0.0017,"nx":28,"ny":28,"refTime":"2023-09-05T09:00:00:Z","depth":"0","parameterNumber":2,"parameterNumberName":"U-component_of_CURRENTS"},"data":[0,0,0,0,0,0,0,0,0,0,0,0,0,0,0,0,0,0,0,0,0,0,0,0,0,0,0,0,0,0,0,0,0,0,0,0,0,0,0,0,0,0,0,0,0,0,0,0,0,0,0,0,0,0,0,0,0,0,0.3241,0.3241,0,0.3203,0.3203,0.3202,0.3178,0.3178,0.3178,0.3178,0.309,0.3087,0.3085,0,0,0,0,0,0,0,0,0,0,0,0,0,0.3304,0.3302,0.3241,0.3241,0.3241,0.3203,0.3203,0.3202,0.3178,0.3178,0.3178,0.3178,0.309,0.3088,0.3085,0,0,0,0,0,0,0,0,0,0,0,0,0,0.3269,0.3302,0.3241,0.3227,0.3225,0.3204,0.3203,0.3201,0.3178,0.3178,0.3178,0.3179,0.3091,0.3088,0.3084,0.3056,0,0,0.3073,0.3071,0,0,0,0,0,0,0,0,0.3271,0.3266,0.3229,0.3228,0.3226,0.3198,0.3192,0.3151,0.3178,0.3192,0.3178,0.3179,0.3123,0.3117,0.3105,0.3052,0.3048,0.3072,0.307,0.3068,0.3067,0,0,0,0,0,0,0,0.3274,0.3268,0.3223,0.3229,0.3227,0.3226,0.3221,0.3184,0.3154,0.3191,0.319,0.3191,0.3122,0.3109,0.3103,0.3047,0.3072,0.3069,0.3067,0.3065,0.3046,0.3048,0,0,0,0,0,0,0.3284,0.327,0.3224,0.3222,0.3253,0.3225,0.3219,0.3204,0.3155,0.3149,0.3191,0.319,0.3115,0.3107,0.31,0.3131,0.3068,0.3065,0.3063,0.3044,0.3046,0.3048,0,0,0,0,0,0,0.3285,0.3279,0.3226,0.3249,0.3243,0.3224,0.3207,0.3204,0.3205,0.3156,0.3148,0.3198,0.3115,0.3105,0.3088,0.3125,0.3063,0.306,0.3042,0.3045,0.3047,0.3151,0,0,0,0,0,0,0.3286,0.3279,0.3277,0.3249,0.3242,0.3231,0.3207,0.3203,0.3205,0.3204,0.3159,0.315,0.3115,0.3094,0.3084,0.3119,0.3057,0.304,0.3043,0.3047,0.3145,0.3157,0.3166,0,0,0,0,0,0.3288,0.3279,0.3277,0.3272,0.3237,0.3232,0.3229,0.3214,0.3206,0.3214,0.3186,0.3153,0.3109,0.3092,0.308,0.3114,0.3038,0.3043,0.3046,0.314,0.3154,0.3166,0,0,0,0,0,0,0.3296,0.3275,0.3272,0.3255,0.3257,0.323,0.323,0.3225,0.3208,0.3205,0.3159,0.3149,0.3157,0.3118,0.3101,0.3122,0.3074,0.3076,0.315,0.3162,0.3173,0.3185,0.3054,0,0,0,0,0,0.3301,0.3294,0.328,0.3272,0.327,0.3255,0.3252,0.3248,0.3229,0.3222,0.3195,0.317,0.3161,0.3147,0.3129,0.3123,0.3126,0.3143,0.3154,0.3163,0.3167,0.3207,0.3222,0.3061,0.3061,0.3061,0,0,0.33,0.3291,0.3286,0.3276,0.3267,0.3278,0.3253,0.3256,0.3271,0.3213,0.322,0.3205,0.317,0.3179,0.3179,0.315,0.3218,0.3168,0.3176,0.3175,0.3213,0.3229,0.3243,0.3064,0.3063,0.3063,0,0,0.3309,0.329,0.3296,0.3301,0.3306,0.33,0.3308,0.3298,0.3298,0.3303,0.3281,0.3288,0.3253,0.325,0.324,0.3294,0.3278,0.3295,0.3348,0.3388,0.3401,0.3413,0.3469,0.3485,0.3293,0.3294,0.3294,0,0.3312,0.3312,0.33,0.3315,0.3321,0.3316,0.3331,0.3335,0.3327,0.3332,0.3319,0.3317,0.3291,0.3314,0.3341,0.3319,0.3344,0.3301,0.3403,0.3414,0.3425,0.3478,0.3495,0.3299,0.3298,0.3298,0.3297,0,0.3333,0.3337,0.334,0.3358,0.3368,0.3377,0.3386,0.3401,0.3402,0.3407,0.3434,0.3413,0.341,0.3419,0.3392,0.346,0.3457,0.3419,0.3372,0.3447,0.3499,0.3515,0.3307,0.3305,0.3303,0.3302,0,0,0.3311,0.3348,0.3348,0.3363,0.3388,0.3393,0.3429,0.3451,0.3473,0.3488,0.3521,0.353,0.3527,0.3517,0.3503,0.3539,0.3647,0.3517,0.3517,0.3577,0.3761,0.3711,0.3723,0.3632,0.3634,0.3636,0.378,0,0.3327,0.3366,0.3379,0.3413,0.3426,0.3441,0.347,0.3497,0.3517,0.355,0.3563,0.3589,0.3562,0.3575,0.361,0.3632,0.3687,0.3613,0.3675,0.3677,0.3626,0.3738,0.3536,0.3642,0.3794,0.3797,0.3798,0,0.3328,0.3361,0.3396,0.3433,0.3438,0.3459,0.3498,0.3529,0.3581,0.3599,0.364,0.3654,0.3717,0.3681,0.3774,0.3731,0.3762,0.3782,0.3787,0.3709,0.3654,0.3584,0.3663,0.3567,0.3821,0.3819,0.3818,0,0.3306,0.3355,0.3384,0.3398,0.3449,0.3463,0.3489,0.3538,0.3567,0.3643,0.3678,0.3742,0.3775,0.3833,0.3879,0.3839,0.3987,0.3926,0.392,0.3917,0.3739,0.3716,0.3727,0.4011,0.4011,0.4011,0.401,0,0.3296,0.3313,0.3373,0.3387,0.3416,0.3454,0.3489,0.3525,0.3591,0.364,0.3699,0.3761,0.3816,0.3898,0.3933,0.3987,0.4034,0.3961,0.3957,0.3772,0.3752,0.365,0.3591,0.4016,0.4015,0.4014,0.4013,0,0.325,0.3294,0.3322,0.3383,0.3399,0.3416,0.3479,0.351,0.3579,0.3652,0.3687,0.3795,0.3912,0.3977,0.4082,0.4044,0.3988,0.4118,0.391,0.3878,0.3733,0.3686,0.3578,0.3478,0.4123,0.4123,0.4123,0,0.3227,0.3241,0.3305,0.3322,0.3343,0.3384,0.3412,0.3488,0.3531,0.3677,0.3712,0.3857,0.3942,0.408,0.4078,0.4144,0.4012,0.3962,0.3833,0.373,0.3676,0.354,0.3454,0.3659,0.3654,0.3651,0.3649,0,0.3184,0.3205,0.3237,0.3274,0.33,0.3343,0.3394,0.3424,0.353,0.359,0.3713,0.3806,0.3947,0.3915,0.398,0.3985,0.3737,0.3895,0.3827,0.3357,0.3168,0.3067,0.3586,0.3619,0.3622,0.3624,0.3626,0.3627,0.3135,0.3145,0.3185,0.3204,0.3247,0.3283,0.327,0.3341,0.3391,0.3436,0.3616,0.3651,0.3704,0.3771,0.3759,0.3573,0.3595,0.3415,0.3389,0.3282,0.3098,0.3575,0.357,0.3572,0.3574,0.3576,0.3578,0,0.3051,0.3078,0.3112,0.3128,0.3132,0.3191,0.3234,0.319,0.319,0.3289,0.3348,0.3346,0.3314,0.3331,0.322,0.3071,0.292,0.2973,0.2719,0.2678,0.3138,0.3029,0.2855,0.2855,0.2855,0.2855,0.2856,0.2856,0.3005,0.3004,0.3026,0.2998,0.3012,0.2961,0.2957,0.2916,0.2938,0.2873,0.2834,0.2895,0.2979,0.2941,0.2776,0.2694,0.2477,0.2339,0.2398,0.2702,0.274,0.2776,0.2662,0.2414,0.2413,0.1794,0.1789,0.1786]},{"header":{"parameterUnit":"m.s-1","parameterCategory":2,"la1":30.2991,"la2":30.254,"lo1":-89.0895,"lo2":-89.0444,"dy":0.0017,"dx":0.0017,"nx":28,"ny":28,"refTime":"2023-09-05T09:00:00:Z","depth":"0","parameterNumber":3,"parameterNumberName":"V-component_of_CURRENTS"},"data":[0,0,0,0,0,0,0,0,0,0,0,0,0,0,0,0,0,0,0,0,0,0,0,0,0,0,0,0,0,0,0,0,0,0,0,0,0,0,0,0,0,0,0,0,0,0,0,0,0,0,0,0,0,0,0,0,0,0,-0.0417,-0.0417,0,-0.0456,-0.0456,-0.0457,-0.0473,-0.0473,-0.0473,-0.0473,-0.0484,-0.0484,-0.0484,0,0,0,0,0,0,0,0,0,0,0,0,0,-0.0426,-0.0425,-0.0417,-0.0417,-0.0418,-0.0456,-0.0457,-0.0457,-0.0473,-0.0473,-0.0473,-0.0473,-0.0483,-0.0484,-0.0484,0,0,0,0,0,0,0,0,0,0,0,0,0,-0.044,-0.0425,-0.0417,-0.043,-0.0431,-0.0456,-0.0457,-0.0457,-0.0473,-0.0473,-0.0473,-0.0473,-0.0483,-0.0484,-0.0484,-0.0493,0,0,-0.0486,-0.0487,0,0,0,0,0,0,0,0,-0.0439,-0.0439,-0.0428,-0.0429,-0.0431,-0.0459,-0.0464,-0.0467,-0.0473,-0.0458,-0.0473,-0.0473,-0.0472,-0.0474,-0.0483,-0.0493,-0.0494,-0.0486,-0.0487,-0.0487,-0.0487,0,0,0,0,0,0,0,-0.0438,-0.0438,-0.0433,-0.0428,-0.043,-0.0458,-0.0459,-0.0465,-0.0466,-0.046,-0.0461,-0.0464,-0.0473,-0.0483,-0.0483,-0.0494,-0.0486,-0.0487,-0.0487,-0.0488,-0.0524,-0.0524,0,0,0,0,0,0,-0.0428,-0.0437,-0.0432,-0.0434,-0.0434,-0.0457,-0.0459,-0.0451,-0.0467,-0.0469,-0.0464,-0.0464,-0.0482,-0.0483,-0.0484,-0.0501,-0.0487,-0.0488,-0.0488,-0.0523,-0.0524,-0.0524,0,0,0,0,0,0,-0.0428,-0.0427,-0.043,-0.0437,-0.0439,-0.0457,-0.0448,-0.0452,-0.0466,-0.047,-0.0472,-0.0475,-0.0481,-0.0483,-0.049,-0.0501,-0.0488,-0.0489,-0.0522,-0.0523,-0.0524,-0.0531,0,0,0,0,0,0,-0.0428,-0.0426,-0.0426,-0.0436,-0.0438,-0.0449,-0.0448,-0.0452,-0.0467,-0.0468,-0.048,-0.0481,-0.0481,-0.0489,-0.0491,-0.0502,-0.0489,-0.0522,-0.0523,-0.0524,-0.053,-0.0532,-0.0534,0,0,0,0,0,-0.0428,-0.0428,-0.0425,-0.0425,-0.0433,-0.0449,-0.0454,-0.0467,-0.0468,-0.0478,-0.0481,-0.0481,-0.0497,-0.049,-0.0492,-0.0503,-0.0521,-0.0522,-0.0524,-0.0529,-0.0531,-0.0533,0,0,0,0,0,0,-0.0429,-0.043,-0.0427,-0.0426,-0.0437,-0.0452,-0.0461,-0.047,-0.0482,-0.0478,-0.0484,-0.0485,-0.05,-0.05,-0.0492,-0.0518,-0.0511,-0.0513,-0.0515,-0.0517,-0.0519,-0.0492,-0.049,0,0,0,0,0,-0.0428,-0.0434,-0.0434,-0.0438,-0.0436,-0.0449,-0.0459,-0.0465,-0.0474,-0.048,-0.0491,-0.0498,-0.0507,-0.0509,-0.0519,-0.0529,-0.0509,-0.0539,-0.0541,-0.0542,-0.0522,-0.0519,-0.0518,-0.0529,-0.0529,-0.0529,0,0,-0.0434,-0.0434,-0.0439,-0.044,-0.0445,-0.044,-0.0455,-0.0466,-0.0464,-0.0478,-0.0486,-0.0507,-0.0512,-0.0526,-0.0532,-0.0525,-0.0528,-0.0544,-0.0545,-0.0524,-0.052,-0.0519,-0.0517,-0.0529,-0.0529,-0.0529,0,0,-0.0441,-0.0439,-0.044,-0.0441,-0.0444,-0.0447,-0.0449,-0.0462,-0.047,-0.0481,-0.0493,-0.0516,-0.0529,-0.0539,-0.0542,-0.0559,-0.0542,-0.0571,-0.0553,-0.055,-0.0549,-0.0547,-0.0511,-0.0507,-0.0567,-0.0567,-0.0567,0,-0.0441,-0.0434,-0.0446,-0.0436,-0.043,-0.0444,-0.043,-0.0442,-0.0463,-0.0461,-0.048,-0.0509,-0.0531,-0.0533,-0.0548,-0.0562,-0.0543,-0.0544,-0.0551,-0.0549,-0.0547,-0.0511,-0.0506,-0.0568,-0.0568,-0.0568,-0.0568,0,-0.0439,-0.0431,-0.0429,-0.0414,-0.0415,-0.041,-0.041,-0.0414,-0.0426,-0.044,-0.0456,-0.0494,-0.0501,-0.0533,-0.0546,-0.0551,-0.0535,-0.0557,-0.0541,-0.0546,-0.0508,-0.0502,-0.0568,-0.0568,-0.0568,-0.0568,0,0,-0.0414,-0.0426,-0.0416,-0.0402,-0.0395,-0.0388,-0.0378,-0.0369,-0.0344,-0.0396,-0.0373,-0.0439,-0.0461,-0.0467,-0.0502,-0.0518,-0.0509,-0.0532,-0.0532,-0.0487,-0.0472,-0.042,-0.0409,-0.0533,-0.0532,-0.0531,-0.0446,0,-0.0394,-0.0382,-0.0386,-0.0356,-0.0341,-0.0336,-0.0318,-0.0315,-0.0318,-0.0305,-0.0356,-0.0357,-0.0434,-0.0433,-0.0467,-0.0496,-0.0495,-0.0528,-0.048,-0.0478,-0.0425,-0.0402,-0.0387,-0.0306,-0.044,-0.0439,-0.0438,0,-0.0361,-0.036,-0.0338,-0.031,-0.0296,-0.028,-0.0227,-0.0215,-0.0204,-0.0201,-0.022,-0.0251,-0.0284,-0.0346,-0.0389,-0.0403,-0.0429,-0.046,-0.0457,-0.0398,-0.0416,-0.0326,-0.029,-0.0428,-0.0429,-0.043,-0.043,0,-0.0323,-0.0306,-0.029,-0.0282,-0.0262,-0.0235,-0.0214,-0.0188,-0.0149,-0.0129,-0.0088,-0.0147,-0.0144,-0.0211,-0.0279,-0.0328,-0.0301,-0.0374,-0.0344,-0.0339,-0.0308,-0.0301,-0.039,-0.038,-0.0381,-0.0381,-0.0381,0,-0.0281,-0.0257,-0.0272,-0.0255,-0.0201,-0.0201,-0.0131,-0.0104,-0.0057,0.0024,-0.0033,0.0039,-0.0111,-0.0117,-0.021,-0.0232,-0.0239,-0.0314,-0.0311,-0.0309,-0.0304,-0.0408,-0.051,-0.0378,-0.0378,-0.0379,-0.038,0,-0.0229,-0.0247,-0.0216,-0.02,-0.0183,-0.0141,-0.0069,-0.001,0.0031,0.0145,0.0164,0.0181,0.0196,0.0078,0.0003,-0.0108,-0.0217,-0.0157,-0.0125,-0.0121,-0.0259,-0.036,-0.039,-0.0453,-0.0127,-0.0125,-0.0124,0,-0.0207,-0.0194,-0.0166,-0.0134,-0.0121,-0.0067,-0.0009,0.0035,0.0114,0.0264,0.0341,0.0388,0.0482,0.0397,0.0213,0.0098,-0.0081,0.0001,-0.0112,-0.0237,-0.0349,-0.0418,-0.0476,-0.007,-0.0068,-0.0067,-0.0066,0,-0.0151,-0.0144,-0.0115,-0.0056,-0.0,0.0069,0.0153,0.0232,0.033,0.047,0.0678,0.0772,0.0711,0.0618,0.0424,0.0304,-0.0107,0.003,-0.0123,-0.0317,-0.0374,-0.0442,-0.0141,-0.0052,-0.0054,-0.0055,-0.0055,-0.0056,-0.0093,-0.0063,-0.0025,0.0045,0.0114,0.0222,0.0318,0.0447,0.0634,0.0897,0.0951,0.1181,0.0948,0.0708,0.0499,0.0085,0.0044,-0.0079,-0.0186,-0.0238,-0.0323,0.0036,0.0133,0.0133,0.0133,0.0133,0.0132,0,-0.0011,0.0018,0.0077,0.017,0.0276,0.0285,0.0452,0.0589,0.0863,0.1131,0.1361,0.1438,0.1142,0.0767,0.02,-0.0099,-0.025,-0.0281,-0.0421,-0.0471,-0.0163,-0.0187,-0.0126,-0.0126,-0.0126,-0.0125,-0.0125,-0.0125,0.0038,0.0109,0.0131,0.0303,0.038,0.055,0.0661,0.0889,0.1112,0.1497,0.1705,0.1824,0.1524,0.0481,-0.0241,-0.0411,-0.0648,-0.0662,-0.0791,-0.0645,-0.0637,-0.0629,-0.0676,-0.0718,-0.0719,-0.1061,-0.1065,-0.1068]}],[{"header":{"parameterUnit":"m.s-1","parameterCategory":2,"la1":30.2991,"la2":30.254,"lo1":-89.0895,"lo2":-89.0444,"dy":0.0017,"dx":0.0017,"nx":28,"ny":28,"refTime":"2023-09-05T09:00:00:Z","depth":"2","parameterNumber":2,"parameterNumberName":"U-component_of_CURRENTS"},"data":[0,0,0,0,0,0,0,0,0,0,0,0,0,0,0,0,0,0,0,0,0,0,0,0,0,0,0,0,0,0,0,0,0,0,0,0,0,0,0,0,0,0,0,0,0,0,0,0,0,0,0,0,0,0,0,0,0,0,0.227,0.227,0,0.2272,0.2272,0.2272,0.2302,0.2303,0.2303,0.2304,0.232,0.232,0.2319,0,0,0,0,0,0,0,0,0,0,0,0,0,0.224,0.2241,0.227,0.227,0.227,0.2272,0.2272,0.2272,0.2302,0.2303,0.2304,0.2304,0.232,0.232,0.2319,0,0,0,0,0,0,0,0,0,0,0,0,0,0.225,0.2241,0.227,0.2284,0.2286,0.2272,0.2272,0.2272,0.2302,0.2303,0.2304,0.2305,0.232,0.232,0.2319,0.2298,0,0,0.2318,0.2318,0,0,0,0,0,0,0,0,0.2249,0.2251,0.2283,0.2283,0.2285,0.2287,0.2267,0.2281,0.2302,0.2297,0.2304,0.2305,0.2309,0.2309,0.2309,0.2298,0.2299,0.2318,0.2318,0.2318,0.2318,0,0,0,0,0,0,0,0.2249,0.2251,0.2272,0.2282,0.2284,0.2272,0.2275,0.227,0.2298,0.2297,0.2299,0.2297,0.231,0.2309,0.2309,0.2299,0.2318,0.2318,0.2318,0.2318,0.2383,0.2385,0,0,0,0,0,0,0.2248,0.225,0.2272,0.2272,0.2268,0.2272,0.2276,0.2286,0.2298,0.2301,0.2296,0.2299,0.2309,0.231,0.231,0.2371,0.2318,0.2318,0.2318,0.2381,0.2383,0.2385,0,0,0,0,0,0,0.2247,0.225,0.2272,0.2259,0.2261,0.2272,0.2283,0.2286,0.2303,0.2297,0.23,0.2314,0.231,0.2311,0.2335,0.2369,0.2318,0.2317,0.2379,0.2382,0.2384,0.2439,0,0,0,0,0,0,0.2247,0.225,0.2273,0.226,0.2262,0.2288,0.2282,0.2285,0.2299,0.2302,0.2312,0.2314,0.2311,0.2335,0.2335,0.2368,0.2317,0.2376,0.238,0.2383,0.2434,0.2443,0.245,0,0,0,0,0,0.2246,0.2266,0.2274,0.2277,0.2288,0.2289,0.229,0.23,0.2299,0.2317,0.2327,0.2314,0.2358,0.2336,0.2335,0.2369,0.2375,0.2379,0.2383,0.2431,0.2441,0.245,0,0,0,0,0,0,0.2278,0.227,0.2279,0.2302,0.2307,0.2294,0.2309,0.2307,0.2326,0.2339,0.2326,0.2329,0.237,0.236,0.2336,0.2402,0.2369,0.2373,0.2406,0.2415,0.2423,0.2428,0.2317,0,0,0,0,0,0.2291,0.2302,0.2296,0.2322,0.2321,0.2317,0.2322,0.2331,0.2336,0.2346,0.2342,0.2356,0.2382,0.2391,0.2406,0.2427,0.2433,0.2453,0.2461,0.2468,0.2474,0.2499,0.2509,0.2399,0.2399,0.2399,0,0,0.2306,0.231,0.2315,0.2329,0.2331,0.2339,0.2324,0.2343,0.2363,0.2343,0.2368,0.2381,0.2395,0.2434,0.245,0.2431,0.2511,0.2473,0.2479,0.2481,0.2504,0.2515,0.2524,0.2402,0.2402,0.2401,0,0,0.2333,0.2349,0.236,0.2362,0.2374,0.2375,0.2383,0.2377,0.2394,0.2421,0.2421,0.245,0.247,0.2487,0.2501,0.2558,0.2554,0.2571,0.2609,0.2634,0.2642,0.265,0.2703,0.2715,0.2571,0.2571,0.2571,0,0.2364,0.2365,0.2367,0.2376,0.2377,0.239,0.2399,0.2421,0.2429,0.244,0.2447,0.25,0.2501,0.2555,0.258,0.2575,0.2598,0.2568,0.2643,0.265,0.2657,0.2709,0.2721,0.2574,0.2574,0.2574,0.2573,0,0.2364,0.2387,0.2393,0.2407,0.2422,0.2431,0.245,0.2478,0.2498,0.2507,0.2567,0.2586,0.2616,0.2629,0.2622,0.2678,0.2684,0.265,0.2613,0.2671,0.2723,0.2735,0.2579,0.2578,0.2577,0.2576,0,0,0.2381,0.239,0.2398,0.2408,0.2432,0.2443,0.2492,0.2522,0.2565,0.2596,0.2634,0.2689,0.2698,0.2715,0.2719,0.2739,0.2809,0.2718,0.2718,0.2764,0.2894,0.2829,0.2836,0.2787,0.2789,0.279,0.2921,0,0.2384,0.2399,0.2406,0.2438,0.244,0.2472,0.2521,0.2565,0.2609,0.2652,0.269,0.2739,0.2734,0.2766,0.2788,0.2806,0.2839,0.2779,0.2838,0.2841,0.2768,0.2846,0.2612,0.2702,0.2933,0.2935,0.2936,0,0.236,0.2384,0.2406,0.245,0.2457,0.2493,0.2569,0.2613,0.2686,0.2724,0.2781,0.2805,0.2867,0.2838,0.2928,0.2894,0.2902,0.291,0.2914,0.2838,0.2796,0.2677,0.2714,0.2956,0.2954,0.2953,0.2951,0,0.2343,0.2372,0.2393,0.24,0.2467,0.2506,0.2548,0.2634,0.2685,0.2766,0.282,0.2889,0.2943,0.2972,0.3001,0.2974,0.308,0.3039,0.2997,0.2994,0.2798,0.2773,0.3085,0.3085,0.3084,0.3084,0.3084,0,0.2308,0.2346,0.239,0.2415,0.2455,0.2508,0.2584,0.2639,0.2738,0.279,0.2857,0.2913,0.2975,0.3034,0.304,0.3074,0.3122,0.3028,0.3023,0.2814,0.2791,0.2997,0.2985,0.3089,0.3088,0.3087,0.3086,0,0.2278,0.2322,0.2349,0.242,0.245,0.2474,0.2581,0.2634,0.2754,0.2828,0.2858,0.296,0.304,0.3103,0.3156,0.3132,0.3155,0.314,0.2909,0.2873,0.3052,0.3041,0.3135,0.3134,0.3133,0.3132,0.3131,0,0.2253,0.2263,0.2325,0.2352,0.2389,0.2451,0.25,0.2616,0.2667,0.2836,0.285,0.2976,0.3011,0.3111,0.309,0.3128,0.3155,0.2912,0.2799,0.3071,0.3057,0.3048,0.304,0.2584,0.2579,0.2575,0.2571,0,0.222,0.2252,0.2295,0.2304,0.2351,0.2389,0.2465,0.2494,0.2628,0.2704,0.2776,0.2828,0.2942,0.2855,0.2922,0.2894,0.2891,0.2827,0.3174,0.2597,0.2558,0.2542,0.2551,0.2534,0.2537,0.254,0.2542,0.2544,0.2206,0.2189,0.2239,0.2241,0.2281,0.2296,0.2292,0.2368,0.2418,0.2476,0.2592,0.2604,0.266,0.2632,0.2566,0.253,0.2724,0.2591,0.2601,0.2617,0.2518,0.2478,0.2424,0.2427,0.2429,0.2432,0.2434,0,0.2103,0.2136,0.2162,0.2165,0.2136,0.2214,0.2242,0.22,0.217,0.2264,0.2304,0.2158,0.2141,0.2209,0.2107,0.2123,0.2073,0.2025,0.1933,0.1974,0.201,0.1876,0.1614,0.1611,0.1608,0.1605,0,0,0.2089,0.2074,0.2077,0.2027,0.2022,0.1952,0.1931,0.1904,0.1921,0.1854,0.1859,0.2028,0.2145,0.1841,0.1817,0.1692,0.1806,0.1624,0.229,0.2222,0.2253,0.2357,0.2201,0,0,0,0,0]},{"header":{"parameterUnit":"m.s-1","parameterCategory":2,"la1":30.2991,"la2":30.254,"lo1":-89.0895,"lo2":-89.0444,"dy":0.0017,"dx":0.0017,"nx":28,"ny":28,"refTime":"2023-09-05T09:00:00:Z","depth":"2","parameterNumber":3,"parameterNumberName":"V-component_of_CURRENTS"},"data":[0,0,0,0,0,0,0,0,0,0,0,0,0,0,0,0,0,0,0,0,0,0,0,0,0,0,0,0,0,0,0,0,0,0,0,0,0,0,0,0,0,0,0,0,0,0,0,0,0,0,0,0,0,0,0,0,0,0,0.0251,0.025,0,0.0197,0.0196,0.0195,0.0139,0.0138,0.0138,0.0137,0.0048,0.0046,0.0044,0,0,0,0,0,0,0,0,0,0,0,0,0,0.0305,0.0304,0.0251,0.025,0.025,0.0197,0.0196,0.0195,0.0139,0.0138,0.0138,0.0137,0.0048,0.0046,0.0044,0,0,0,0,0,0,0,0,0,0,0,0,0,0.0266,0.0303,0.0251,0.0218,0.0215,0.0197,0.0196,0.0195,0.0139,0.0138,0.0138,0.0137,0.0049,0.0046,0.0044,0.0041,0,0,0.0035,0.0034,0,0,0,0,0,0,0,0,0.0269,0.0264,0.0223,0.022,0.0216,0.0176,0.0182,0.0143,0.0139,0.0165,0.0137,0.0136,0.009,0.0084,0.0072,0.0037,0.0033,0.0035,0.0033,0.0032,0.0031,0,0,0,0,0,0,0,0.0271,0.0266,0.0226,0.0223,0.0219,0.0206,0.0199,0.0174,0.0129,0.0162,0.0159,0.0158,0.0087,0.0075,0.0069,0.0032,0.0035,0.0032,0.003,0.0029,-0.0019,-0.0018,0,0,0,0,0,0,0.0285,0.0269,0.0228,0.0225,0.0245,0.0206,0.0198,0.0188,0.013,0.0122,0.0159,0.0155,0.008,0.0072,0.0066,0.0063,0.0032,0.0029,0.0027,-0.0019,-0.0019,-0.0018,0,0,0,0,0,0,0.0286,0.0281,0.023,0.0249,0.0242,0.0206,0.0194,0.0187,0.0174,0.0128,0.0118,0.0153,0.0079,0.007,0.0042,0.0059,0.0028,0.0025,-0.002,-0.0019,-0.0019,0.0056,0,0,0,0,0,0,0.0287,0.0282,0.0272,0.0249,0.0241,0.0225,0.0195,0.0187,0.0176,0.0171,0.0121,0.0111,0.0078,0.0046,0.0039,0.0054,0.0023,-0.002,-0.002,-0.0019,0.0053,0.0059,0.0064,0,0,0,0,0,0.0289,0.0286,0.0271,0.0267,0.0231,0.0226,0.0221,0.0191,0.0176,0.0175,0.0137,0.0113,0.0046,0.0044,0.0035,0.0051,-0.0021,-0.002,-0.0019,0.005,0.0058,0.0064,0,0,0,0,0,0,0.0306,0.0279,0.0263,0.0251,0.0241,0.0218,0.0213,0.0198,0.0167,0.0161,0.0115,0.0103,0.0085,0.0057,0.0056,0.0039,0.0011,0.001,0.0066,0.0072,0.0078,0.0098,0.002,0,0,0,0,0,0.0306,0.0292,0.0274,0.0265,0.0263,0.024,0.0232,0.0218,0.0194,0.0179,0.0146,0.011,0.0083,0.0069,0.0038,0.003,0.0002,0.0035,0.0041,0.0046,0.0056,0.0026,0.0031,-0.0015,-0.0015,-0.0015,0,0,0.0315,0.0294,0.0289,0.0267,0.0256,0.0264,0.0232,0.0231,0.0237,0.0175,0.0165,0.0126,0.0084,0.007,0.0061,0.005,0.0042,0.0047,0.0052,0.0059,0.0028,0.0032,0.0036,-0.0014,-0.0015,-0.0015,0,0,0.0334,0.0306,0.0307,0.0305,0.0293,0.0281,0.0286,0.0268,0.0256,0.0244,0.0202,0.0176,0.0134,0.011,0.0092,0.0112,0.007,0.0103,0.0152,0.0124,0.0128,0.0131,0.0098,0.0097,0.011,0.011,0.011,0,0.034,0.0341,0.031,0.0319,0.0325,0.0296,0.0318,0.0305,0.028,0.0279,0.025,0.0195,0.0156,0.0147,0.015,0.0126,0.01,0.0131,0.0132,0.0135,0.0136,0.0102,0.01,0.0114,0.0113,0.0113,0.0113,0,0.0379,0.0373,0.038,0.0377,0.0377,0.0394,0.0382,0.0378,0.0359,0.0346,0.0329,0.027,0.024,0.0225,0.0191,0.0191,0.0164,0.014,0.0119,0.0146,0.0107,0.0104,0.0119,0.0118,0.0117,0.0116,0,0,0.0405,0.0406,0.0408,0.0422,0.0414,0.0427,0.0435,0.0442,0.0457,0.0419,0.0433,0.0377,0.0345,0.0322,0.0277,0.0252,0.0235,0.0209,0.0205,0.0183,0.0169,0.0147,0.0141,0.0211,0.0211,0.0211,0.0137,0,0.0445,0.048,0.0466,0.0507,0.0528,0.0509,0.0518,0.0518,0.0506,0.0509,0.0459,0.0447,0.0383,0.037,0.0335,0.0261,0.0231,0.0257,0.0141,0.0137,0.012,0.0138,0.0155,0.0091,0.0134,0.0133,0.0133,0,0.0496,0.0506,0.0556,0.0572,0.0582,0.0602,0.0624,0.0631,0.0621,0.0609,0.0586,0.0546,0.0506,0.0447,0.0337,0.0356,0.0272,0.0209,0.0205,0.0158,0.011,0.007,0.0083,0.0127,0.0128,0.0128,0.0129,0,0.0548,0.0575,0.0617,0.0628,0.0639,0.0659,0.0668,0.0667,0.0685,0.068,0.0695,0.0628,0.0605,0.0495,0.0362,0.0349,0.0239,0.0202,0.0102,0.0098,0.0078,0.0073,0.0127,0.0127,0.0127,0.0128,0.0128,0,0.0603,0.0633,0.065,0.0675,0.0729,0.0715,0.0768,0.0766,0.0772,0.0817,0.0754,0.0771,0.0617,0.0537,0.0397,0.0245,0.0261,0.0116,0.0082,0.0103,0.0102,0.0105,0.0103,0.0125,0.0125,0.0126,0.0127,0,0.0659,0.0661,0.071,0.0738,0.0756,0.0797,0.0839,0.0878,0.087,0.0928,0.0934,0.0879,0.0774,0.0612,0.0435,0.0302,0.0151,0.0091,0.0124,0.0095,0.0017,0.002,-0.0029,-0.003,-0.0031,-0.0032,-0.0033,0,0.0692,0.0723,0.0777,0.0807,0.0826,0.088,0.0922,0.0929,0.0976,0.1002,0.1043,0.0968,0.093,0.0658,0.0413,0.0169,0.0142,0.0024,0.0001,0.0032,0.0003,0.0008,0.0013,-0.0004,-0.0004,-0.0005,-0.0005,0,0.0747,0.0767,0.0805,0.0876,0.093,0.1005,0.1069,0.1116,0.1138,0.1179,0.1213,0.1184,0.0947,0.0705,0.0378,0.0211,0.0062,0.0008,0.0036,0.0038,0.0051,0.0024,0.0029,-0.0008,-0.0008,-0.0008,-0.0008,-0.0007,0.0787,0.0829,0.0876,0.0939,0.1011,0.1115,0.1176,0.1243,0.1314,0.1358,0.1331,0.1271,0.1024,0.0589,0.0322,0.0033,0.0041,-0.0067,-0.0064,-0.0061,-0.004,-0.0029,-0.01,-0.01,-0.01,-0.01,-0.01,0,0.084,0.0875,0.0936,0.1016,0.1101,0.1137,0.1261,0.1305,0.1393,0.1423,0.1424,0.1167,0.0911,0.0618,0.0193,-0.0051,-0.0068,-0.0135,-0.0095,-0.009,-0.0086,-0.0065,-0.0133,-0.0134,-0.0134,-0.0135,0,0,0.086,0.0918,0.0941,0.1057,0.113,0.1248,0.1318,0.1387,0.1421,0.142,0.1372,0.1305,0.0975,0.0665,0.0341,0.0102,0.0057,0.0048,0.0099,0.0189,0.0196,-0.0025,0.0016,0,0,0,0,0]}],[{"header":{"parameterUnit":"m.s-1","parameterCategory":2,"la1":30.2991,"la2":30.254,"lo1":-89.0895,"lo2":-89.0444,"dy":0.0017,"dx":0.0017,"nx":28,"ny":28,"refTime":"2023-09-05T09:00:00:Z","depth":"4","parameterNumber":2,"parameterNumberName":"U-component_of_CURRENTS"},"data":[0,0,0,0,0,0,0,0,0,0,0,0,0,0,0,0,0,0,0,0,0,0,0,0,0,0,0,0,0,0,0,0,0,0,0,0,0,0,0,0,0,0,0,0,0,0,0,0,0,0,0,0,0,0,0,0,0,0,0.12,0.12,0,0.1272,0.1273,0.1274,0.1339,0.1339,0.134,0.134,0.1454,0.1456,0.1459,0,0,0,0,0,0,0,0,0,0,0,0,0,0.1095,0.1097,0.1199,0.12,0.1201,0.1272,0.1273,0.1275,0.1338,0.1339,0.134,0.134,0.1453,0.1456,0.1459,0,0,0,0,0,0,0,0,0,0,0,0,0,0.1153,0.1097,0.1199,0.124,0.1244,0.1272,0.1273,0.1275,0.1338,0.1339,0.134,0.1341,0.1452,0.1456,0.1459,0.1466,0,0,0.1471,0.1472,0,0,0,0,0,0,0,0,0.115,0.1157,0.1233,0.1237,0.1242,0.1295,0.1278,0.134,0.1338,0.1305,0.134,0.1341,0.1402,0.141,0.1425,0.1471,0.1476,0.1471,0.1473,0.1475,0.1476,0,0,0,0,0,0,0,0.1146,0.1154,0.1231,0.1234,0.1239,0.1247,0.1257,0.129,0.135,0.1308,0.1312,0.1316,0.1406,0.1421,0.1428,0.1478,0.1471,0.1474,0.1477,0.1478,0.1622,0.1623,0,0,0,0,0,0,0.1133,0.1151,0.1228,0.1232,0.1194,0.1248,0.1259,0.1279,0.1349,0.136,0.1316,0.1319,0.1414,0.1423,0.1432,0.1524,0.1475,0.1478,0.1481,0.162,0.1622,0.1624,0,0,0,0,0,0,0.1131,0.114,0.1225,0.119,0.1202,0.1249,0.1271,0.128,0.1322,0.1355,0.1367,0.1351,0.1415,0.1427,0.1489,0.1526,0.148,0.1484,0.1618,0.1621,0.1623,0.1658,0,0,0,0,0,0,0.1128,0.1139,0.1162,0.119,0.1203,0.1256,0.127,0.1281,0.132,0.1327,0.1388,0.1398,0.1417,0.1483,0.1492,0.1531,0.1487,0.1616,0.1619,0.1622,0.1654,0.1661,0.1666,0,0,0,0,0,0.1124,0.1143,0.1163,0.1172,0.1229,0.1257,0.1265,0.1301,0.1321,0.1342,0.1389,0.1397,0.1508,0.1487,0.1498,0.1538,0.1615,0.1618,0.1622,0.1652,0.166,0.1666,0,0,0,0,0,0,0.1105,0.1152,0.1174,0.1207,0.1237,0.1267,0.1294,0.1314,0.1367,0.1383,0.1417,0.143,0.1499,0.1512,0.1488,0.1588,0.1563,0.1569,0.1583,0.159,0.1596,0.159,0.149,0,0,0,0,0,0.1111,0.1148,0.1181,0.1211,0.123,0.1268,0.1289,0.1311,0.1351,0.1377,0.1419,0.1468,0.1517,0.1548,0.1587,0.164,0.1651,0.1673,0.1679,0.1684,0.1687,0.1731,0.1741,0.1635,0.1635,0.1635,0,0,0.1106,0.1143,0.116,0.1211,0.1244,0.1273,0.1285,0.1322,0.1357,0.138,0.1455,0.1492,0.1536,0.1599,0.1631,0.1618,0.1722,0.1688,0.1692,0.1693,0.1736,0.1746,0.1755,0.1638,0.1637,0.1637,0,0,0.1111,0.1157,0.1187,0.1218,0.1267,0.129,0.1305,0.135,0.139,0.1452,0.1483,0.1539,0.1614,0.165,0.1679,0.1739,0.1751,0.1758,0.1787,0.1831,0.1839,0.1847,0.1877,0.1888,0.1762,0.1762,0.1762,0,0.1112,0.1154,0.1196,0.1233,0.1261,0.1301,0.133,0.1372,0.1433,0.1471,0.1483,0.1604,0.1638,0.1716,0.1741,0.1754,0.1775,0.1756,0.1838,0.1846,0.1853,0.1882,0.1893,0.1764,0.1764,0.1764,0.1763,0,0.1125,0.1173,0.1195,0.1261,0.1295,0.1327,0.138,0.1428,0.148,0.152,0.1615,0.1663,0.1734,0.1757,0.1773,0.1848,0.1846,0.1838,0.1816,0.1866,0.1893,0.1904,0.1767,0.1766,0.1766,0.1765,0,0,0.1103,0.1189,0.1201,0.1239,0.1314,0.1339,0.141,0.148,0.1536,0.1604,0.1679,0.1764,0.1794,0.1827,0.1855,0.1892,0.1965,0.1892,0.1894,0.1915,0.2061,0.193,0.1929,0.1975,0.1977,0.1979,0.2059,0,0.111,0.1169,0.1216,0.128,0.1315,0.138,0.1444,0.1514,0.1584,0.1666,0.1733,0.1816,0.1821,0.1867,0.1907,0.1956,0.1995,0.1943,0.2015,0.2017,0.1889,0.1937,0.1985,0.2067,0.207,0.2071,0.2073,0,0.1108,0.1155,0.1207,0.1304,0.1328,0.1377,0.1484,0.1545,0.1661,0.172,0.1805,0.186,0.195,0.1936,0.2042,0.2013,0.2043,0.2066,0.207,0.1941,0.1905,0.2008,0.2092,0.209,0.2089,0.2088,0.2086,0,0.1057,0.1153,0.1195,0.1225,0.1331,0.1388,0.1457,0.1569,0.1634,0.1764,0.1828,0.1926,0.1999,0.205,0.2112,0.209,0.221,0.2181,0.2089,0.208,0.2158,0.2148,0.2246,0.2246,0.2246,0.2246,0.2246,0,0.1037,0.1081,0.1185,0.1207,0.1283,0.1374,0.1464,0.1549,0.1672,0.1748,0.1859,0.1926,0.2034,0.2113,0.2141,0.2151,0.224,0.21,0.2094,0.2171,0.2163,0.2165,0.2155,0.2249,0.2248,0.2248,0.2247,0,0.0977,0.1038,0.1099,0.1216,0.1258,0.1319,0.1463,0.1524,0.1658,0.1761,0.1811,0.1959,0.2056,0.2143,0.2235,0.2182,0.2206,0.2188,0.2277,0.2274,0.2038,0.2029,0.2076,0.2072,0.2069,0.2066,0.2064,0,0.0949,0.0971,0.1083,0.1122,0.1186,0.1286,0.135,0.1498,0.1565,0.1759,0.18,0.1949,0.203,0.2065,0.2151,0.2195,0.2172,0.2163,0.2078,0.2032,0.2022,0.2018,0.2014,0.2059,0.2058,0.2057,0.2056,0,0.0902,0.0946,0.0989,0.1065,0.1141,0.1199,0.1314,0.135,0.1516,0.1656,0.1751,0.1814,0.1919,0.1983,0.2043,0.2064,0.2151,0.2128,0.2134,0.2053,0.2011,0.2004,0.2003,0.2045,0.2046,0.2047,0.2048,0,0.0871,0.0884,0.0942,0.1006,0.1078,0.1104,0.1166,0.1261,0.1344,0.1569,0.1591,0.1757,0.1895,0.1917,0.1968,0.1985,0.1944,0.1867,0.1885,0.1899,0.1803,0.1721,0.1665,0,0,0,0,0,0.0845,0.0846,0.0886,0.0933,0.0992,0.1037,0.114,0.1206,0.1369,0.1398,0.1495,0.1588,0.1672,0.1754,0.1736,0.1875,0.194,0.1843,0.1856,0.1981,0.1994,0.1896,0,0,0,0,0,0,0.082,0.0853,0.0857,0.0859,0.0877,0.0927,0.0983,0.1084,0.1114,0.1291,0.1351,0.1487,0.1597,0.1676,0.1708,0.1732,0.1704,0.1949,0.1945,0.1973,0.1985,0.1996,0.19,0,0,0,0,0]},{"header":{"parameterUnit":"m.s-1","parameterCategory":2,"la1":30.2991,"la2":30.254,"lo1":-89.0895,"lo2":-89.0444,"dy":0.0017,"dx":0.0017,"nx":28,"ny":28,"refTime":"2023-09-05T09:00:00:Z","depth":"4","parameterNumber":3,"parameterNumberName":"V-component_of_CURRENTS"},"data":[0,0,0,0,0,0,0,0,0,0,0,0,0,0,0,0,0,0,0,0,0,0,0,0,0,0,0,0,0,0,0,0,0,0,0,0,0,0,0,0,0,0,0,0,0,0,0,0,0,0,0,0,0,0,0,0,0,0,0.028,0.028,0,0.0247,0.0246,0.0246,0.0218,0.0218,0.0218,0.0217,0.0155,0.0154,0.0153,0,0,0,0,0,0,0,0,0,0,0,0,0,0.0307,0.0307,0.028,0.028,0.0279,0.0247,0.0246,0.0246,0.0218,0.0218,0.0218,0.0217,0.0156,0.0154,0.0152,0,0,0,0,0,0,0,0,0,0,0,0,0,0.0286,0.0307,0.028,0.0262,0.026,0.0247,0.0246,0.0246,0.0218,0.0218,0.0218,0.0217,0.0156,0.0154,0.0152,0.0147,0,0,0.0146,0.0145,0,0,0,0,0,0,0,0,0.0288,0.0285,0.0265,0.0263,0.0261,0.0237,0.0233,0.0211,0.0218,0.0234,0.0217,0.0217,0.018,0.0176,0.0171,0.0144,0.0141,0.0145,0.0144,0.0143,0.0143,0,0,0,0,0,0,0,0.0289,0.0287,0.0266,0.0265,0.0262,0.0251,0.0248,0.0229,0.0209,0.0232,0.023,0.0228,0.0179,0.0173,0.0169,0.014,0.0146,0.0144,0.0142,0.0141,0.0115,0.0116,0,0,0,0,0,0,0.0295,0.0288,0.0267,0.0265,0.0274,0.0251,0.0247,0.0244,0.0209,0.0204,0.0228,0.0226,0.0177,0.0171,0.0167,0.0173,0.0143,0.0141,0.014,0.0115,0.0115,0.0116,0,0,0,0,0,0,0.0296,0.0294,0.0269,0.0276,0.0272,0.0251,0.0248,0.0244,0.0242,0.0206,0.02,0.023,0.0176,0.017,0.0154,0.017,0.014,0.0138,0.0114,0.0115,0.0116,0.0176,0,0,0,0,0,0,0.0297,0.0294,0.0296,0.0277,0.0272,0.0268,0.0248,0.0244,0.0241,0.0238,0.0207,0.02,0.0175,0.0158,0.0152,0.0166,0.0137,0.0113,0.0114,0.0115,0.0173,0.0179,0.0184,0,0,0,0,0,0.0298,0.0303,0.0296,0.0293,0.0274,0.0268,0.0265,0.0248,0.0241,0.0244,0.0222,0.0201,0.0161,0.0156,0.015,0.0164,0.0113,0.0114,0.0115,0.0171,0.0178,0.0183,0,0,0,0,0,0,0.0318,0.0301,0.0292,0.0292,0.0284,0.0264,0.0265,0.0256,0.0241,0.0241,0.0206,0.0198,0.0191,0.0169,0.0165,0.0159,0.0135,0.0135,0.0179,0.0185,0.0191,0.02,0.0135,0,0,0,0,0,0.0323,0.0323,0.0305,0.0308,0.0304,0.0287,0.0283,0.0275,0.0259,0.0253,0.0229,0.0207,0.0191,0.0182,0.0162,0.0158,0.0127,0.0163,0.0169,0.0173,0.0177,0.0142,0.0144,0.012,0.012,0.012,0,0,0.0336,0.0323,0.0326,0.0312,0.0303,0.0307,0.0284,0.0286,0.0294,0.0248,0.0249,0.0223,0.0194,0.0189,0.0185,0.0173,0.0164,0.0175,0.0179,0.018,0.0144,0.0146,0.0148,0.0121,0.0121,0.0121,0,0,0.0357,0.0347,0.0352,0.0347,0.0338,0.0329,0.0333,0.0318,0.0316,0.0313,0.0284,0.0268,0.0243,0.0224,0.0212,0.0234,0.0192,0.023,0.0264,0.0231,0.0232,0.0233,0.0198,0.0195,0.0233,0.0234,0.0234,0,0.0368,0.0374,0.0355,0.0358,0.0361,0.0343,0.0356,0.0353,0.0337,0.0336,0.0322,0.0287,0.0261,0.0255,0.0262,0.0247,0.0217,0.0244,0.0238,0.0238,0.0238,0.0201,0.0197,0.0237,0.0236,0.0236,0.0236,0,0.0393,0.0399,0.0404,0.0401,0.0403,0.0415,0.0407,0.0411,0.0405,0.0394,0.0387,0.035,0.0328,0.0321,0.0297,0.029,0.0265,0.0247,0.0223,0.0244,0.0204,0.0199,0.0241,0.024,0.0239,0.0238,0,0,0.041,0.0419,0.0422,0.0434,0.0431,0.0438,0.0454,0.0459,0.0471,0.0452,0.0458,0.0429,0.0404,0.0389,0.0358,0.033,0.0304,0.0293,0.029,0.0259,0.0225,0.0199,0.0191,0.0282,0.0281,0.0281,0.0197,0,0.0434,0.046,0.0456,0.0489,0.0502,0.0497,0.0514,0.0517,0.051,0.051,0.0478,0.0469,0.0433,0.0424,0.0393,0.0325,0.0293,0.0328,0.0207,0.0204,0.018,0.0186,0.0279,0.0193,0.0192,0.0191,0.019,0,0.0455,0.047,0.051,0.0536,0.0542,0.0563,0.0587,0.06,0.0592,0.0584,0.0565,0.0532,0.0497,0.0462,0.0362,0.0384,0.0312,0.0257,0.0252,0.0204,0.0169,0.0166,0.0181,0.0181,0.0182,0.0183,0.0183,0,0.0478,0.0507,0.0546,0.0555,0.0581,0.0605,0.0622,0.0625,0.0644,0.0632,0.0634,0.058,0.0558,0.0467,0.0356,0.0356,0.0235,0.0219,0.0127,0.0124,0.0145,0.0145,0.0145,0.0145,0.0145,0.0146,0.0146,0,0.0499,0.0529,0.0566,0.0588,0.0639,0.0643,0.0691,0.0696,0.0706,0.0726,0.0677,0.067,0.0557,0.0475,0.0368,0.0233,0.0242,0.0132,0.0102,0.0173,0.0177,0.0141,0.0142,0.0142,0.0143,0.0144,0.0144,0,0.0515,0.0538,0.0584,0.063,0.0653,0.069,0.0746,0.0774,0.0776,0.0799,0.0799,0.0735,0.0624,0.0497,0.0341,0.0252,0.0122,0.0069,0.0155,0.013,0.003,0.0035,-0.0038,-0.0039,-0.0041,-0.0042,-0.0043,0,0.0523,0.0551,0.0623,0.0655,0.0682,0.074,0.0784,0.0812,0.0841,0.0834,0.0846,0.0754,0.0691,0.0459,0.0318,0.011,0.0078,0.0011,0.0021,0.0034,0.0011,0.0018,0.0025,-0.0045,-0.0045,-0.0045,-0.0046,0,0.0537,0.0569,0.061,0.0684,0.0741,0.0804,0.0866,0.0891,0.0916,0.0921,0.0875,0.0757,0.0627,0.0451,0.0286,0.0138,0.0056,-0.0004,-0.0002,0.0007,0.0024,0.0005,0.0013,-0.005,-0.005,-0.0049,-0.0049,0,0.055,0.0581,0.0642,0.0702,0.0775,0.0841,0.0876,0.0906,0.0936,0.0926,0.0906,0.0767,0.0692,0.0464,0.0315,0.0164,0.0124,0.0077,0.0074,0.0077,0.0133,0.0173,0.0118,0,0,0,0,0,0.0558,0.0592,0.0652,0.0718,0.0789,0.0837,0.0917,0.0944,0.0971,0.0943,0.0925,0.08,0.0572,0.0479,0.0322,0.0281,0.0095,0.0091,0.0039,-0.0076,-0.0071,-0.0028,0,0,0,0,0,0,0.056,0.0618,0.0649,0.0722,0.0765,0.0852,0.0906,0.0928,0.0914,0.0913,0.0798,0.0746,0.053,0.0652,0.0311,0.0267,0.0209,-0.001,-0.0013,-0.0079,-0.0074,-0.007,-0.0024,0,0,0,0,0]}]]